AirNav   Everest Fuels
 
 1052 users online  

MU58 VA Medical Center Heliport
Kansas City, Missouri, USA

GOING TO KANSAS CITY?


FAA INFORMATION EFFECTIVE 16 JULY 2020

Location

FAA Identifier: MU58
Lat/Long: 39-03-51.0180N 094-31-31.8350W
39-03.850300N 094-31.530583W
39.0641717,-94.5255097
(estimated)
Elevation: 941 ft. / 287 m (estimated)
Variation: 05E (1985)
Time zone: UTC -5 (UTC -6 during Standard Time)
Zip code: 64128

Heliport Operations

Heliport use: Private use, MEDICAL.
Activation date: 07/1985
Control tower: no
ARTCC: KANSAS CITY CENTER
FSS: COLUMBIA FLIGHT SERVICE STATION
Attendance: UNATNDD
Wind indicator: lighted
Segmented circle: no
Lights: FOR PERIMETER LGTS CALL 816-861-4700.

Heliport Communications

WX ASOS at MKC (5 nm NW): PHONE 816-329-2843
WX ASOS at LXT (10 nm SE): 124.175 (816-347-9807)
WX ASOS at OJC (16 nm SW): 119.35 (913-780-6969)
WX ASOS at MCI (17 nm NW): PHONE 816-329-2808
WX AWOS-3 at GPH (19 nm NE): 120.275 (816-407-3399)

Nearby radio navigation aids

VOR radial/distance  VOR name  Freq  Var
MCIr138/16.5KANSAS CITY VORTAC113.2505E
ANXr257/18.6NAPOLEON VORTAC114.0007E

Heliport Services

Runway Information

Helipad H1

Dimensions: 60 x 60 ft. / 18 x 18 m
Surface: concrete
Operational restrictions: NORTH/SOUTH INGRESS & ROUTES ENGRESS.
Latitude: 39-03.850300N
Longitude: 094-31.530583W
Elevation: 941.0 ft.
Traffic pattern: leftleft

Heliport Ownership and Management from official FAA records

Ownership: Publicly-owned
Owner: DEPT OF VETERANS AFFAIRS
4801 LINWOOD BLVD.
KANSAS CITY, MO 64128
Phone 816-861-4700
Manager: KENT HILL
4801 LINWOOD BLVD.
KANSAS CITY, MO 64128
Phone 816-861-4700

Additional Remarks

A40 HELIPAD LIGHTED WITH PERIMETER LIGHTS.
FOR CD CTC KANSAS CITY APCH AT 816-329-2710.

Instrument Procedures

There are no published instrument procedures at MU58.

Some nearby airports with instrument procedures:

KMKC - Charles B Wheeler Downtown Airport (5 nm NW)
KLXT - Lee's Summit Municipal Airport (10 nm SE)
3GV - East Kansas City Airport (15 nm E)
KOJC - Johnson County Executive Airport (16 nm SW)
KMCI - Kansas City International Airport (17 nm NW)
KGPH - Midwest National Air Center Airport (19 nm NE)
 
Loc | Ops | Rwys | IFR | FBO | Links
Com | Nav | Svcs | Stats | Notes
Area around MU58 (VA Medical Center Heliport)
 
Road maps at: MapQuest Bing Google
 
Aerial photo
No photo
 
Sectional chart

 
Airport distance calculator
Flying to VA Medical Center Heliport? Find the distance to fly.

From to MU58

Sunrise and sunset
Times for 06-Aug-2020
 Local
(UTC-5)
 Zulu
(UTC)
Morning civil twilight05:5610:56
Sunrise06:2511:25
Sunset20:2301:23
Evening civil twilight20:5201:52

Current date and time
Zulu (UTC)  06-Aug-2020 23:56:05
Local (UTC-5)  06-Aug-2020 18:56:05
 
METAR
KMKC 
5nm NW 
062254Z 14012KT 10SM FEW038 29/19 A2997 RMK AO2 SLP143 T02890189
KLXT 
9nm SE 
062253Z AUTO 15007KT 10SM FEW035 28/19 A3000 RMK AO2 SLP149 T02830194
KOJC 
16nm SW 
062253Z 14009KT 10SM CLR 27/21 A2998 RMK AO2 SLP143 T02720206
KMCI 
17nm NW 
062253Z 15011KT 10SM BKN035 BKN045 28/21 A2999 RMK AO2 SLP144 T02780206 $
KGPH 
19nm NE 
062255Z AUTO 12006KT 10SM SCT025 27/20 A3000 RMK AO2
TAF
KMKC 
5nm NW 
061720Z 0618/0718 15008KT P6SM FEW035 BKN080 FM071000 18009KT P6SM SCT035 BKN060
KMCI 
17nm NW 
061720Z 0618/0718 15008KT P6SM BKN080 FM070900 18009KT P6SM SCT035 BKN060
NOTAMs
Click for the latest NOTAMs
NOTAMs are issued by the DoD/FAA and will open in a separate window not controlled by AirNav.

 

 
 

Would you like to see your business listed on this page?

 If your business provides an interesting product or service to pilots, flight crews, aircraft, or users of the VA Medical Center Heliport, you should consider listing it here.  To start the listing process, click on the button below
 
Add a business
 

Other Pages about VA Medical Center Heliport

Update a link
 
Copyright © AirNav, LLC. All rights reserved. Privacy Policy  Contact